[[{"header":{"parameterUnit":"m.s-1","parameterCategory":2,"la1":30.2991,"la2":30.254,"lo1":-89.0895,"lo2":-89.0444,"dy":0.0017,"dx":0.0017,"nx":28,"ny":28,"refTime":"2025-11-09T03:00:00:Z","depth":"0","parameterNumber":2,"parameterNumberName":"U-component_of_CURRENTS"},"data":[0,0,0,0,0,0,0,0,0,0,0,0,0,0,0,0,0,0,0,0,0,0,0,0,0,0,0,0,0,0,0,0,0,0,0,0,0,0,0,0,0,0,0,0,0,0,0,0,0,0,0,0,0,0,0,0,0,0,-0.3706,-0.3705,0,-0.3644,-0.3643,-0.3642,-0.3619,-0.3619,-0.362,-0.362,-0.3498,-0.3494,-0.3491,0,0,0,0,0,0,0,0,0,0,0,0,0,-0.3802,-0.38,-0.3706,-0.3705,-0.3704,-0.3644,-0.3643,-0.3642,-0.3619,-0.3619,-0.362,-0.362,-0.3499,-0.3495,-0.3491,0,0,0,0,0,0,0,0,0,0,0,0,0,-0.3751,-0.38,-0.3706,-0.3686,-0.3684,-0.3644,-0.3643,-0.3642,-0.3619,-0.3619,-0.362,-0.362,-0.35,-0.3495,-0.349,-0.3448,0,0,-0.3474,-0.3471,0,0,0,0,0,0,0,0,-0.3754,-0.3747,-0.369,-0.3688,-0.3685,-0.364,-0.3632,-0.3574,-0.3619,-0.3642,-0.362,-0.362,-0.354,-0.3532,-0.3518,-0.3442,-0.3437,-0.3473,-0.347,-0.3468,-0.3466,0,0,0,0,0,0,0,-0.3757,-0.375,-0.368,-0.3689,-0.3686,-0.368,-0.3673,-0.3621,-0.3588,-0.364,-0.3639,-0.3634,-0.3538,-0.3524,-0.3515,-0.3435,-0.3473,-0.3469,-0.3465,-0.3463,-0.3215,-0.3211,0,0,0,0,0,0,-0.3767,-0.3753,-0.3682,-0.3678,-0.3723,-0.3678,-0.367,-0.3653,-0.3589,-0.3581,-0.3633,-0.3633,-0.3532,-0.3521,-0.3511,-0.3416,-0.3468,-0.3463,-0.346,-0.3218,-0.3214,-0.321,0,0,0,0,0,0,-0.3769,-0.376,-0.3684,-0.3716,-0.3706,-0.3676,-0.3657,-0.3652,-0.363,-0.3585,-0.3575,-0.3616,-0.3532,-0.3518,-0.3429,-0.3413,-0.346,-0.3456,-0.3222,-0.3217,-0.3212,-0.3252,0,0,0,0,0,0,-0.3771,-0.3761,-0.3737,-0.3716,-0.3705,-0.364,-0.3657,-0.365,-0.3627,-0.3626,-0.3567,-0.3557,-0.3532,-0.3437,-0.3424,-0.3406,-0.3452,-0.3226,-0.322,-0.3214,-0.3255,-0.3249,-0.3244,0,0,0,0,0,-0.3775,-0.3731,-0.3736,-0.3727,-0.3677,-0.3639,-0.3631,-0.3612,-0.3626,-0.3598,-0.355,-0.3558,-0.3386,-0.3429,-0.3415,-0.3396,-0.3229,-0.3221,-0.3214,-0.3258,-0.3251,-0.3244,0,0,0,0,0,0,-0.3756,-0.3724,-0.3729,-0.3678,-0.3657,-0.3635,-0.3596,-0.3607,-0.3551,-0.3546,-0.3516,-0.35,-0.3417,-0.338,-0.3429,-0.3295,-0.3308,-0.3297,-0.3346,-0.3339,-0.3333,-0.3362,-0.3447,0,0,0,0,0,-0.3745,-0.3705,-0.3687,-0.3646,-0.3628,-0.3618,-0.3598,-0.3597,-0.3556,-0.3535,-0.3491,-0.3431,-0.3373,-0.3337,-0.3273,-0.3202,-0.3191,-0.3172,-0.3166,-0.3163,-0.3168,-0.3149,-0.3145,-0.3185,-0.3185,-0.3185,0,0,-0.3729,-0.3705,-0.3683,-0.364,-0.3617,-0.3568,-0.3604,-0.3569,-0.3539,-0.3526,-0.3442,-0.3409,-0.3345,-0.3266,-0.3226,-0.3237,-0.3134,-0.3153,-0.3151,-0.3159,-0.3141,-0.3138,-0.3135,-0.3179,-0.318,-0.3181,0,0,-0.3643,-0.3651,-0.3568,-0.3554,-0.352,-0.3527,-0.3518,-0.3488,-0.3479,-0.3407,-0.3394,-0.3353,-0.3238,-0.3216,-0.3186,-0.3103,-0.3105,-0.3067,-0.3071,-0.3052,-0.3051,-0.305,-0.3009,-0.3004,-0.3067,-0.3067,-0.3067,0,-0.3607,-0.3537,-0.3542,-0.3467,-0.3465,-0.3504,-0.3449,-0.3434,-0.3384,-0.3385,-0.3368,-0.3259,-0.322,-0.3167,-0.3139,-0.3101,-0.3077,-0.312,-0.3054,-0.3052,-0.3051,-0.3009,-0.3004,-0.3068,-0.3068,-0.3068,-0.3068,0,-0.3451,-0.3421,-0.3378,-0.3311,-0.3307,-0.3278,-0.3286,-0.3278,-0.329,-0.329,-0.3242,-0.3194,-0.3146,-0.3121,-0.3106,-0.3072,-0.3053,-0.3059,-0.3096,-0.3051,-0.3007,-0.3001,-0.307,-0.3069,-0.3069,-0.3069,0,0,-0.3309,-0.3272,-0.3255,-0.3257,-0.3248,-0.3239,-0.3212,-0.3217,-0.3228,-0.3182,-0.3179,-0.3103,-0.3128,-0.3094,-0.3085,-0.3071,-0.3042,-0.3061,-0.306,-0.3064,-0.2979,-0.2879,-0.2862,-0.3046,-0.3046,-0.3045,-0.2949,0,-0.3187,-0.3065,-0.3085,-0.304,-0.3014,-0.3094,-0.3081,-0.3108,-0.3132,-0.3132,-0.3138,-0.3107,-0.3101,-0.3098,-0.3084,-0.3066,-0.3028,-0.3066,-0.2984,-0.2981,-0.2935,-0.2853,-0.2732,-0.2629,-0.2942,-0.2941,-0.2941,0,-0.3005,-0.2992,-0.2904,-0.2984,-0.2977,-0.2961,-0.3039,-0.3034,-0.3075,-0.3095,-0.31,-0.3106,-0.3094,-0.3089,-0.3037,-0.3061,-0.3012,-0.2988,-0.2984,-0.2878,-0.2868,-0.2721,-0.2605,-0.26,-0.2931,-0.2932,-0.2932,0,-0.2909,-0.2877,-0.2836,-0.2844,-0.2901,-0.2916,-0.2959,-0.3014,-0.3038,-0.3079,-0.3094,-0.3092,-0.3079,-0.3045,-0.3,-0.3019,-0.2929,-0.2952,-0.2801,-0.2793,-0.2666,-0.2647,-0.2573,-0.2881,-0.2881,-0.2882,-0.2882,0,-0.2779,-0.2754,-0.2797,-0.2782,-0.2799,-0.2866,-0.2889,-0.2938,-0.3001,-0.3016,-0.3069,-0.3059,-0.3067,-0.3025,-0.2989,-0.2864,-0.2912,-0.2778,-0.2756,-0.2667,-0.2651,-0.2621,-0.2666,-0.2878,-0.2879,-0.288,-0.288,0,-0.2639,-0.2651,-0.2642,-0.2715,-0.2739,-0.275,-0.2843,-0.2865,-0.2942,-0.2963,-0.2973,-0.302,-0.2961,-0.2937,-0.2872,-0.282,-0.2685,-0.267,-0.2554,-0.2518,-0.2376,-0.2427,-0.233,-0.2261,-0.2494,-0.2491,-0.2488,0,-0.2559,-0.2515,-0.2571,-0.2579,-0.2604,-0.265,-0.2681,-0.2801,-0.2835,-0.2918,-0.2913,-0.2888,-0.2822,-0.2698,-0.2606,-0.2487,-0.2523,-0.2326,-0.2338,-0.2324,-0.2366,-0.2422,-0.2376,-0.2176,-0.2171,-0.2167,-0.2164,0,-0.2426,-0.2416,-0.2406,-0.2429,-0.246,-0.2508,-0.2571,-0.26,-0.2729,-0.2733,-0.272,-0.2675,-0.2571,-0.2407,-0.2285,-0.2209,-0.2284,-0.2236,-0.2256,-0.2124,-0.2146,-0.2082,-0.2288,-0.2128,-0.2131,-0.2134,-0.2136,-0.2137,-0.2324,-0.227,-0.2245,-0.2253,-0.2297,-0.2333,-0.2271,-0.235,-0.2355,-0.2268,-0.2459,-0.2285,-0.2288,-0.2081,-0.2004,-0.1873,-0.1965,-0.1842,-0.1906,-0.1965,-0.1888,-0.1997,-0.1797,-0.1799,-0.18,-0.1801,-0.1803,0,-0.2181,-0.2102,-0.2086,-0.2076,-0.2029,-0.2126,-0.2147,-0.2017,-0.1897,-0.1874,-0.1809,-0.1843,-0.1756,-0.1742,-0.169,-0.1602,-0.1577,-0.1586,-0.1655,-0.1623,-0.1724,-0.1699,-0.1427,-0.1427,-0.1427,-0.1427,-0.1427,-0.1427,-0.2079,-0.1964,-0.1931,-0.1795,-0.1778,-0.1613,-0.1552,-0.1407,-0.1298,-0.1085,-0.1021,-0.1023,-0.1338,-0.1682,-0.1633,-0.1538,-0.1533,-0.147,-0.1525,-0.1637,-0.1668,-0.1697,-0.1682,-0.1411,-0.1411,-0.1346,-0.1346,-0.1346]},{"header":{"parameterUnit":"m.s-1","parameterCategory":2,"la1":30.2991,"la2":30.254,"lo1":-89.0895,"lo2":-89.0444,"dy":0.0017,"dx":0.0017,"nx":28,"ny":28,"refTime":"2025-11-09T03:00:00:Z","depth":"0","parameterNumber":3,"parameterNumberName":"V-component_of_CURRENTS"},"data":[0,0,0,0,0,0,0,0,0,0,0,0,0,0,0,0,0,0,0,0,0,0,0,0,0,0,0,0,0,0,0,0,0,0,0,0,0,0,0,0,0,0,0,0,0,0,0,0,0,0,0,0,0,0,0,0,0,0,0.0083,0.0084,0,0.0202,0.0203,0.0205,0.0337,0.0338,0.034,0.0341,0.0487,0.0489,0.0491,0,0,0,0,0,0,0,0,0,0,0,0,0,0.0169,0.0165,0.0083,0.0084,0.0085,0.0201,0.0203,0.0205,0.0336,0.0338,0.034,0.0342,0.0486,0.0489,0.0492,0,0,0,0,0,0,0,0,0,0,0,0,0,0.0196,0.0164,0.0082,0.0162,0.0171,0.0201,0.0203,0.0206,0.0336,0.0338,0.0341,0.0343,0.0485,0.0489,0.0492,0.0464,0,0,0.0503,0.0504,0,0,0,0,0,0,0,0,0.0194,0.0193,0.0149,0.0157,0.0166,0.0254,0.0287,0.0292,0.0335,0.0276,0.0341,0.0344,0.0408,0.0418,0.0438,0.0471,0.0477,0.0503,0.0505,0.0507,0.0508,0,0,0,0,0,0,0,0.0192,0.019,0.0133,0.015,0.0161,0.0261,0.0266,0.029,0.0329,0.0282,0.0291,0.0298,0.0413,0.0435,0.0443,0.0479,0.0503,0.0506,0.0508,0.051,0.0494,0.0492,0,0,0,0,0,0,0.0157,0.0186,0.0129,0.0136,0.0183,0.0256,0.0262,0.0226,0.0329,0.0346,0.0296,0.0304,0.0427,0.0439,0.0448,0.043,0.0507,0.051,0.0512,0.0497,0.0494,0.0491,0,0,0,0,0,0,0.0157,0.0149,0.0124,0.0165,0.0169,0.025,0.021,0.0227,0.0253,0.0339,0.0358,0.0305,0.043,0.0443,0.0459,0.0437,0.0511,0.0515,0.05,0.0496,0.0493,0.0388,0,0,0,0,0,0,0.0159,0.0147,0.0106,0.016,0.0165,0.0129,0.0208,0.0227,0.0252,0.0264,0.0352,0.0368,0.0433,0.0453,0.0463,0.0443,0.0517,0.0503,0.0498,0.0494,0.0395,0.0382,0.037,0,0,0,0,0,0.016,0.0082,0.0102,0.0096,0.0104,0.0127,0.0138,0.021,0.0249,0.0246,0.0303,0.0366,0.0431,0.0454,0.0465,0.0447,0.0505,0.05,0.0494,0.0401,0.0384,0.037,0,0,0,0,0,0,0.0083,0.009,0.0112,0.0035,0.0076,0.0148,0.0139,0.0193,0.0235,0.0244,0.0336,0.0354,0.0361,0.0401,0.0425,0.0423,0.0477,0.0473,0.0401,0.0387,0.0374,0.0388,0.052,0,0,0,0,0,0.0045,-0.0,0.0037,-0.0019,-0.0013,0.0061,0.0078,0.0128,0.0176,0.0199,0.0261,0.0311,0.0342,0.0363,0.0397,0.0391,0.0464,0.0382,0.037,0.0359,0.0374,0.0453,0.0451,0.0473,0.0473,0.0473,0,0,0.0006,-0.0001,-0.0023,-0.0035,-0.0002,-0.0007,0.0078,0.0087,0.0098,0.0202,0.0218,0.0268,0.0328,0.0332,0.0338,0.0368,0.0384,0.0352,0.0343,0.0365,0.0448,0.0446,0.0445,0.0469,0.047,0.047,0,0,-0.0089,-0.0111,-0.0168,-0.0147,-0.0117,-0.0071,-0.0076,-0.0013,0.0026,0.0039,0.0118,0.0156,0.0194,0.0251,0.0278,0.0209,0.0313,0.0205,0.0163,0.0238,0.0238,0.024,0.0311,0.032,0.0202,0.0202,0.0202,0,-0.0147,-0.0204,-0.0175,-0.0212,-0.0197,-0.011,-0.0136,-0.0099,-0.0031,-0.0,0.0024,0.0114,0.0161,0.0198,0.0177,0.0187,0.0247,0.022,0.0226,0.0229,0.0233,0.0306,0.0317,0.0196,0.0197,0.0197,0.0198,0,-0.0254,-0.0293,-0.0327,-0.0341,-0.0326,-0.0336,-0.0275,-0.025,-0.0197,-0.0135,-0.0087,-0.0015,0.0053,0.0057,0.0098,0.0135,0.0175,0.0203,0.0275,0.0225,0.0304,0.0318,0.0188,0.019,0.0192,0.0193,0,0,-0.0401,-0.0405,-0.0415,-0.0415,-0.0387,-0.0381,-0.0378,-0.033,-0.0302,-0.0239,-0.0193,-0.0141,-0.0067,-0.0032,0.0032,0.0096,0.0156,0.0151,0.0158,0.024,0.0328,0.0383,0.0404,0.0192,0.0194,0.0195,0.0369,0,-0.0488,-0.057,-0.054,-0.0578,-0.0599,-0.0516,-0.0511,-0.0451,-0.0381,-0.0319,-0.0221,-0.0167,-0.0113,-0.0077,-0.0006,0.0124,0.0189,0.0107,0.0349,0.0357,0.0427,0.042,0.0483,0.0646,0.0383,0.0385,0.0387,0,-0.0593,-0.0624,-0.0689,-0.0663,-0.0666,-0.0671,-0.061,-0.059,-0.0482,-0.0425,-0.0334,-0.0243,-0.0138,-0.0095,0.0118,0.0066,0.0184,0.0284,0.0293,0.04,0.0438,0.0655,0.0682,0.0866,0.0409,0.0407,0.0405,0,-0.0678,-0.0718,-0.0764,-0.0761,-0.0735,-0.0732,-0.0708,-0.0621,-0.0589,-0.0479,-0.0433,-0.0288,-0.0204,-0.0043,0.0161,0.0144,0.0408,0.041,0.0574,0.0579,0.0711,0.0724,0.0967,0.0558,0.0558,0.0557,0.0557,0,-0.0775,-0.0805,-0.0805,-0.0827,-0.0859,-0.0808,-0.0806,-0.0754,-0.0668,-0.0608,-0.0489,-0.04,-0.0184,-0.0005,0.0162,0.0425,0.0415,0.0585,0.0635,0.067,0.0678,0.0907,0.0961,0.0564,0.0563,0.0561,0.056,0,-0.0857,-0.0861,-0.0903,-0.0899,-0.09,-0.0921,-0.0887,-0.0872,-0.0782,-0.0697,-0.0666,-0.0468,-0.0225,0.0002,0.0291,0.0437,0.0797,0.0756,0.0781,0.0831,0.1129,0.1171,0.1463,0.159,0.096,0.0963,0.0965,0,-0.0894,-0.0934,-0.0968,-0.0997,-0.0999,-0.1015,-0.102,-0.0945,-0.0906,-0.0717,-0.0674,-0.0436,-0.0218,0.0212,0.0498,0.0814,0.0941,0.1041,0.1013,0.1177,0.1262,0.1285,0.1372,0.1143,0.1146,0.1149,0.1151,0,-0.0953,-0.0976,-0.1014,-0.1086,-0.1112,-0.1127,-0.1112,-0.108,-0.0948,-0.0791,-0.0563,-0.0374,-0.001,0.0391,0.0766,0.095,0.1188,0.1106,0.1291,0.1443,0.1475,0.1611,0.0986,0.1176,0.1173,0.1172,0.117,0.1169,-0.0965,-0.103,-0.1088,-0.1143,-0.1186,-0.1177,-0.1105,-0.1015,-0.0844,-0.0499,-0.0415,0.0009,0.0332,0.0879,0.1069,0.1481,0.1414,0.1616,0.166,0.1673,0.1786,0.1207,0.1435,0.1435,0.1434,0.1433,0.1432,0,-0.0924,-0.1033,-0.1128,-0.1159,-0.1165,-0.1185,-0.1109,-0.0952,-0.0633,-0.0328,0.0008,0.0584,0.1021,0.1329,0.1799,0.2028,0.2075,0.2143,0.2207,0.2275,0.1797,0.1795,0.2097,0.2096,0.2096,0.2096,0.2096,0.2096,-0.0907,-0.0999,-0.1074,-0.109,-0.1094,-0.0985,-0.088,-0.0632,-0.0384,0.0228,0.07,0.0964,0.1384,0.2032,0.2481,0.2526,0.2739,0.271,0.2821,0.2492,0.2446,0.2402,0.2417,0.2844,0.2845,0.331,0.3315,0.3318]}],[{"header":{"parameterUnit":"m.s-1","parameterCategory":2,"la1":30.2991,"la2":30.254,"lo1":-89.0895,"lo2":-89.0444,"dy":0.0017,"dx":0.0017,"nx":28,"ny":28,"refTime":"2025-11-09T03:00:00:Z","depth":"2","parameterNumber":2,"parameterNumberName":"U-component_of_CURRENTS"},"data":[0,0,0,0,0,0,0,0,0,0,0,0,0,0,0,0,0,0,0,0,0,0,0,0,0,0,0,0,0,0,0,0,0,0,0,0,0,0,0,0,0,0,0,0,0,0,0,0,0,0,0,0,0,0,0,0,0,0,-0.2663,-0.2663,0,-0.2717,-0.2717,-0.2718,-0.2723,-0.2722,-0.2722,-0.2722,-0.2728,-0.2728,-0.2729,0,0,0,0,0,0,0,0,0,0,0,0,0,-0.2506,-0.2509,-0.2663,-0.2663,-0.2664,-0.2717,-0.2717,-0.2718,-0.2723,-0.2722,-0.2722,-0.2721,-0.2728,-0.2728,-0.2729,0,0,0,0,0,0,0,0,0,0,0,0,0,-0.2567,-0.251,-0.2662,-0.2674,-0.2676,-0.2716,-0.2717,-0.2718,-0.2723,-0.2722,-0.2722,-0.2721,-0.2728,-0.2728,-0.2729,-0.2747,0,0,-0.2732,-0.2732,0,0,0,0,0,0,0,0,-0.2564,-0.2573,-0.2672,-0.2674,-0.2676,-0.2714,-0.2664,-0.2726,-0.2723,-0.2704,-0.2722,-0.2721,-0.272,-0.2722,-0.2732,-0.2747,-0.2748,-0.2732,-0.2732,-0.2733,-0.2733,0,0,0,0,0,0,0,-0.2559,-0.257,-0.2682,-0.2673,-0.2675,-0.2657,-0.2665,-0.2676,-0.2713,-0.2705,-0.2706,-0.2715,-0.2721,-0.2731,-0.2732,-0.2748,-0.2732,-0.2733,-0.2733,-0.2733,-0.2765,-0.2765,0,0,0,0,0,0,-0.256,-0.2567,-0.2681,-0.2684,-0.2619,-0.2661,-0.267,-0.2701,-0.2714,-0.2716,-0.2715,-0.2715,-0.273,-0.2731,-0.2732,-0.2756,-0.2733,-0.2733,-0.2734,-0.2764,-0.2765,-0.2765,0,0,0,0,0,0,-0.2557,-0.2571,-0.2679,-0.2626,-0.2639,-0.2665,-0.2699,-0.2702,-0.2719,-0.2722,-0.2723,-0.2729,-0.2729,-0.2731,-0.2743,-0.2756,-0.2734,-0.2735,-0.2764,-0.2765,-0.2765,-0.2802,0,0,0,0,0,0,-0.2553,-0.257,-0.2593,-0.2627,-0.2642,-0.2706,-0.27,-0.2704,-0.2726,-0.2726,-0.2735,-0.2734,-0.2729,-0.2742,-0.2744,-0.2757,-0.2735,-0.2764,-0.2764,-0.2765,-0.2801,-0.2804,-0.2807,0,0,0,0,0,-0.2547,-0.2579,-0.2594,-0.2608,-0.2673,-0.2707,-0.2713,-0.2727,-0.2727,-0.2739,-0.2741,-0.2734,-0.2747,-0.2743,-0.2745,-0.2759,-0.2763,-0.2764,-0.2765,-0.2799,-0.2803,-0.2807,0,0,0,0,0,0,-0.2525,-0.2584,-0.2601,-0.2651,-0.2679,-0.2709,-0.2723,-0.2734,-0.2748,-0.2747,-0.2744,-0.2745,-0.276,-0.2754,-0.275,-0.2767,-0.2752,-0.2753,-0.2777,-0.2781,-0.2784,-0.2782,-0.2736,0,0,0,0,0,-0.2533,-0.2566,-0.2617,-0.2652,-0.2673,-0.2701,-0.2717,-0.2729,-0.2746,-0.2752,-0.2758,-0.276,-0.2765,-0.2768,-0.2772,-0.2787,-0.2765,-0.2794,-0.2797,-0.28,-0.2799,-0.2784,-0.2785,-0.2768,-0.2768,-0.2768,0,0,-0.2529,-0.2567,-0.2584,-0.2647,-0.2672,-0.2705,-0.2709,-0.2739,-0.2759,-0.275,-0.2775,-0.2775,-0.2772,-0.2786,-0.2791,-0.2782,-0.2791,-0.2801,-0.2803,-0.2801,-0.2785,-0.2786,-0.2788,-0.2768,-0.2768,-0.2768,0,0,-0.2531,-0.258,-0.2607,-0.2639,-0.2686,-0.2708,-0.272,-0.276,-0.2772,-0.2798,-0.2793,-0.2802,-0.2814,-0.2813,-0.2814,-0.2837,-0.2809,-0.2836,-0.2852,-0.2837,-0.2839,-0.284,-0.2802,-0.28,-0.2836,-0.2836,-0.2836,0,-0.2524,-0.2575,-0.2616,-0.2653,-0.2678,-0.2712,-0.2743,-0.2767,-0.28,-0.2809,-0.2807,-0.2824,-0.2827,-0.2838,-0.2845,-0.2845,-0.2821,-0.284,-0.2842,-0.2842,-0.2842,-0.2804,-0.2801,-0.2838,-0.2838,-0.2838,-0.2837,0,-0.2548,-0.2591,-0.2609,-0.2671,-0.2702,-0.2732,-0.2777,-0.2804,-0.2822,-0.2839,-0.2857,-0.286,-0.2865,-0.2871,-0.2868,-0.2873,-0.2849,-0.2849,-0.2833,-0.2847,-0.2805,-0.2801,-0.2841,-0.284,-0.2839,-0.2839,0,0,-0.251,-0.2608,-0.2612,-0.2643,-0.2714,-0.2739,-0.2784,-0.2826,-0.2848,-0.2872,-0.2889,-0.2904,-0.2901,-0.2901,-0.2897,-0.289,-0.2874,-0.2872,-0.287,-0.2836,-0.2821,-0.2724,-0.2709,-0.2873,-0.2873,-0.2873,-0.2787,0,-0.2509,-0.2578,-0.2627,-0.2676,-0.2712,-0.2764,-0.28,-0.2841,-0.2871,-0.2897,-0.2904,-0.2917,-0.2914,-0.2915,-0.2909,-0.2892,-0.2866,-0.2896,-0.2812,-0.2809,-0.2722,-0.2703,-0.2513,-0.2413,-0.2782,-0.2782,-0.2781,0,-0.2503,-0.2552,-0.2608,-0.2684,-0.2705,-0.2736,-0.2795,-0.2834,-0.2884,-0.2905,-0.2922,-0.293,-0.2934,-0.2924,-0.2887,-0.2905,-0.2861,-0.2838,-0.2834,-0.2727,-0.2704,-0.2461,-0.2391,-0.2774,-0.2774,-0.2775,-0.2775,0,-0.2438,-0.2528,-0.257,-0.2598,-0.2694,-0.2717,-0.2763,-0.2825,-0.2854,-0.2904,-0.2919,-0.2932,-0.2925,-0.2898,-0.2856,-0.2871,-0.2796,-0.281,-0.2672,-0.2664,-0.2476,-0.2451,-0.2759,-0.2759,-0.276,-0.276,-0.276,0,-0.241,-0.2435,-0.2543,-0.2562,-0.2597,-0.268,-0.2715,-0.2766,-0.2831,-0.2848,-0.2908,-0.2903,-0.2918,-0.2883,-0.2848,-0.2735,-0.2783,-0.2659,-0.2633,-0.2481,-0.246,-0.2759,-0.276,-0.2757,-0.2757,-0.2758,-0.2758,0,-0.232,-0.24,-0.2441,-0.254,-0.2566,-0.2585,-0.2677,-0.2702,-0.2781,-0.2805,-0.2818,-0.2868,-0.2816,-0.2802,-0.2745,-0.2698,-0.2624,-0.2564,-0.2375,-0.2328,-0.2503,-0.2507,-0.2407,-0.2403,-0.2399,-0.2396,-0.2394,0,-0.228,-0.2297,-0.2394,-0.2408,-0.2447,-0.25,-0.2531,-0.2646,-0.2676,-0.276,-0.2752,-0.2741,-0.2678,-0.2571,-0.2483,-0.2376,-0.2483,-0.2163,-0.2161,-0.248,-0.2466,-0.2476,-0.2484,-0.1921,-0.1915,-0.191,-0.1906,0,-0.2176,-0.2215,-0.2249,-0.2288,-0.2322,-0.2365,-0.2424,-0.2444,-0.2563,-0.2587,-0.2578,-0.2539,-0.2437,-0.224,-0.213,-0.2056,-0.2176,-0.2055,-0.2419,-0.205,-0.2017,-0.2006,-0.2031,-0.1861,-0.1866,-0.1869,-0.1871,-0.1873,-0.2069,-0.2068,-0.2114,-0.2134,-0.2176,-0.2191,-0.2157,-0.2235,-0.225,-0.2244,-0.2334,-0.2214,-0.2166,-0.1879,-0.1764,-0.1688,-0.1839,-0.1783,-0.18,-0.1823,-0.1792,-0.1756,-0.1543,-0.1545,-0.1548,-0.155,-0.1551,0,-0.1916,-0.1937,-0.1954,-0.1965,-0.1936,-0.2021,-0.2042,-0.1979,-0.1922,-0.1975,-0.1938,-0.1719,-0.1572,-0.1534,-0.1332,-0.1292,-0.1297,-0.1255,-0.1271,-0.1315,-0.1354,-0.1303,-0.0923,-0.0921,-0.0919,-0.0918,0,0,-0.1834,-0.1799,-0.1819,-0.1715,-0.1713,-0.1614,-0.1582,-0.1529,-0.1517,-0.144,-0.1398,-0.1501,-0.1492,-0.1221,-0.1142,-0.1001,-0.1151,-0.0946,-0.1448,-0.151,-0.1548,-0.1649,-0.1617,0,0,0,0,0]},{"header":{"parameterUnit":"m.s-1","parameterCategory":2,"la1":30.2991,"la2":30.254,"lo1":-89.0895,"lo2":-89.0444,"dy":0.0017,"dx":0.0017,"nx":28,"ny":28,"refTime":"2025-11-09T03:00:00:Z","depth":"2","parameterNumber":3,"parameterNumberName":"V-component_of_CURRENTS"},"data":[0,0,0,0,0,0,0,0,0,0,0,0,0,0,0,0,0,0,0,0,0,0,0,0,0,0,0,0,0,0,0,0,0,0,0,0,0,0,0,0,0,0,0,0,0,0,0,0,0,0,0,0,0,0,0,0,0,0,-0.041,-0.0409,0,-0.0278,-0.0276,-0.0274,-0.0205,-0.0205,-0.0205,-0.0205,-0.0042,-0.0038,-0.0034,0,0,0,0,0,0,0,0,0,0,0,0,0,-0.0546,-0.0544,-0.041,-0.0408,-0.0407,-0.0278,-0.0276,-0.0274,-0.0205,-0.0205,-0.0205,-0.0205,-0.0043,-0.0038,-0.0033,0,0,0,0,0,0,0,0,0,0,0,0,0,-0.0457,-0.0544,-0.041,-0.0357,-0.0351,-0.0278,-0.0276,-0.0274,-0.0205,-0.0205,-0.0205,-0.0205,-0.0045,-0.0039,-0.0033,0.0006,0,0,-0.0013,-0.001,0,0,0,0,0,0,0,0,-0.0463,-0.0452,-0.0367,-0.0361,-0.0354,-0.0258,-0.0264,-0.0179,-0.0205,-0.026,-0.0205,-0.0205,-0.0112,-0.01,-0.0075,0.0013,0.002,-0.0012,-0.0008,-0.0006,-0.0004,0,0,0,0,0,0,0,-0.0469,-0.0457,-0.0357,-0.0365,-0.0357,-0.0321,-0.0308,-0.0248,-0.0187,-0.0255,-0.025,-0.0236,-0.0108,-0.0081,-0.007,0.0023,-0.0013,-0.0007,-0.0003,-0.0,0.0168,0.0168,0,0,0,0,0,0,-0.0489,-0.0463,-0.0361,-0.0353,-0.041,-0.0319,-0.0305,-0.0289,-0.0188,-0.0173,-0.0236,-0.0233,-0.0092,-0.0078,-0.0064,-0.0013,-0.0006,0.0,0.0004,0.0167,0.0168,0.0168,0,0,0,0,0,0,-0.0493,-0.0481,-0.0366,-0.0406,-0.0389,-0.0317,-0.0299,-0.0286,-0.0257,-0.0174,-0.0159,-0.0221,-0.0092,-0.0073,-0.001,-0.0007,0.0003,0.0009,0.0166,0.0167,0.0168,0.0089,0,0,0,0,0,0,-0.0497,-0.0483,-0.0476,-0.0407,-0.0387,-0.0328,-0.0298,-0.0283,-0.0249,-0.0244,-0.0155,-0.014,-0.009,-0.002,-0.0003,0.0002,0.0014,0.0166,0.0167,0.0168,0.009,0.0087,0.0083,0,0,0,0,0,-0.0502,-0.0493,-0.0476,-0.0464,-0.0381,-0.0328,-0.0314,-0.0262,-0.0249,-0.0236,-0.0177,-0.0143,-0.0001,-0.0014,0.0005,0.0013,0.0165,0.0166,0.0168,0.0092,0.0087,0.0084,0,0,0,0,0,0,-0.0546,-0.0483,-0.0464,-0.0435,-0.0389,-0.0317,-0.0297,-0.0266,-0.0209,-0.0204,-0.0132,-0.0112,-0.0056,-0.0007,-0.0024,0.0066,0.0087,0.0092,0.0023,0.0019,0.0016,-0.0005,0.0019,0,0,0,0,0,-0.0554,-0.0534,-0.047,-0.045,-0.0428,-0.0365,-0.0337,-0.0304,-0.0246,-0.0221,-0.016,-0.0094,-0.0035,0.0001,0.0061,0.0113,0.0161,0.0131,0.0127,0.0124,0.0121,0.0194,0.0196,0.0173,0.0173,0.0173,0,0,-0.057,-0.053,-0.0521,-0.0458,-0.0418,-0.039,-0.0348,-0.031,-0.0287,-0.0211,-0.0162,-0.0104,-0.0024,0.003,0.006,0.0072,0.0157,0.0126,0.0122,0.0121,0.0196,0.0198,0.02,0.0174,0.0174,0.0174,0,0,-0.0588,-0.0552,-0.0541,-0.0506,-0.0449,-0.0409,-0.0402,-0.0332,-0.0301,-0.0247,-0.0191,-0.0133,-0.0039,0.0016,0.0056,0.0073,0.0133,0.0093,0.0062,0.0132,0.0134,0.0137,0.0196,0.0204,0.0093,0.0093,0.0093,0,-0.0607,-0.0584,-0.0531,-0.0509,-0.0489,-0.0424,-0.0414,-0.0367,-0.0287,-0.0262,-0.0242,-0.0107,-0.0046,0.0024,0.0026,0.0063,0.011,0.0066,0.0126,0.0129,0.0133,0.0193,0.0204,0.009,0.009,0.009,0.0091,0,-0.0614,-0.0598,-0.0589,-0.0545,-0.0515,-0.0496,-0.0434,-0.04,-0.0358,-0.0309,-0.0236,-0.0149,-0.0071,-0.0042,-0.0002,0.0056,0.0082,0.0107,0.0128,0.013,0.0194,0.0206,0.0084,0.0086,0.0087,0.0088,0,0,-0.0653,-0.0606,-0.0604,-0.0601,-0.0538,-0.0518,-0.0481,-0.0428,-0.0406,-0.0325,-0.0286,-0.0187,-0.0141,-0.0092,-0.0029,0.0031,0.0093,0.0072,0.0078,0.0116,0.0244,0.027,0.0287,0.0128,0.0129,0.0131,0.0275,0,-0.0678,-0.067,-0.063,-0.063,-0.0626,-0.0565,-0.054,-0.0485,-0.0424,-0.0367,-0.0272,-0.0209,-0.0157,-0.0124,-0.0054,0.0059,0.0122,0.0052,0.025,0.0256,0.0267,0.0301,0.0267,0.0393,0.0287,0.0289,0.0291,0,-0.0698,-0.0694,-0.0704,-0.0687,-0.0679,-0.0666,-0.0624,-0.0588,-0.0491,-0.0443,-0.0359,-0.0278,-0.0174,-0.0136,0.0058,0.001,0.0116,0.0203,0.0211,0.0272,0.0305,0.0378,0.042,0.0311,0.031,0.0308,0.0307,0,-0.0765,-0.0747,-0.0766,-0.0758,-0.0721,-0.0718,-0.0694,-0.0618,-0.0589,-0.049,-0.0453,-0.0316,-0.0241,-0.0093,0.0088,0.0076,0.0302,0.0313,0.0439,0.0442,0.0471,0.0474,0.0447,0.0447,0.0447,0.0446,0.0446,0,-0.081,-0.0824,-0.0804,-0.0815,-0.0842,-0.0788,-0.0789,-0.0741,-0.0664,-0.0621,-0.0501,-0.0427,-0.0226,-0.0069,0.0084,0.0305,0.0308,0.0444,0.0487,0.0443,0.0441,0.0415,0.0409,0.0452,0.0451,0.045,0.0449,0,-0.0875,-0.0859,-0.0885,-0.0873,-0.0875,-0.0895,-0.0865,-0.0854,-0.0773,-0.0709,-0.0681,-0.0498,-0.0289,-0.0081,0.0176,0.0303,0.0504,0.0579,0.0508,0.054,0.0594,0.0583,0.0732,0.0735,0.0737,0.0738,0.074,0,-0.0905,-0.0925,-0.0946,-0.0974,-0.0973,-0.0988,-0.0995,-0.0925,-0.0897,-0.0739,-0.0708,-0.05,-0.0325,0.0052,0.0304,0.0581,0.0578,0.07,0.0672,0.0599,0.0627,0.0612,0.0599,0.0682,0.0683,0.0683,0.0684,0,-0.0966,-0.0973,-0.0997,-0.1063,-0.1089,-0.1109,-0.1101,-0.1092,-0.0982,-0.0899,-0.0731,-0.0577,-0.0207,0.01,0.0441,0.0596,0.0649,0.0722,0.0695,0.0604,0.0561,0.0584,0.0571,0.0689,0.0689,0.0688,0.0688,0.0688,-0.1008,-0.1047,-0.1086,-0.1145,-0.1183,-0.1208,-0.1214,-0.117,-0.1107,-0.0951,-0.0774,-0.0518,-0.0201,0.028,0.0529,0.074,0.0741,0.0793,0.0787,0.0782,0.074,0.0702,0.0848,0.0848,0.0849,0.0849,0.0849,0,-0.106,-0.1097,-0.1163,-0.1226,-0.1281,-0.1277,-0.1267,-0.123,-0.1149,-0.0966,-0.0776,-0.0407,-0.0052,0.026,0.0606,0.0824,0.0797,0.0847,0.0771,0.0765,0.076,0.0713,0.0817,0.0817,0.0818,0.0818,0,0,-0.1085,-0.1157,-0.1192,-0.1293,-0.1334,-0.1362,-0.135,-0.1267,-0.1129,-0.0933,-0.0735,-0.0457,-0.0042,0.0194,0.0475,0.0653,0.0644,0.0662,0.0668,0.0541,0.0533,0.0716,0.0635,0,0,0,0,0]}],[{"header":{"parameterUnit":"m.s-1","parameterCategory":2,"la1":30.2991,"la2":30.254,"lo1":-89.0895,"lo2":-89.0444,"dy":0.0017,"dx":0.0017,"nx":28,"ny":28,"refTime":"2025-11-09T03:00:00:Z","depth":"4","parameterNumber":2,"parameterNumberName":"U-component_of_CURRENTS"},"data":[0,0,0,0,0,0,0,0,0,0,0,0,0,0,0,0,0,0,0,0,0,0,0,0,0,0,0,0,0,0,0,0,0,0,0,0,0,0,0,0,0,0,0,0,0,0,0,0,0,0,0,0,0,0,0,0,0,0,-0.1761,-0.1762,0,-0.1857,-0.1858,-0.1859,-0.1909,-0.1909,-0.1909,-0.1909,-0.2014,-0.2016,-0.2019,0,0,0,0,0,0,0,0,0,0,0,0,0,-0.1614,-0.1616,-0.176,-0.1762,-0.1763,-0.1857,-0.1858,-0.186,-0.1909,-0.1909,-0.1909,-0.1909,-0.2013,-0.2016,-0.2019,0,0,0,0,0,0,0,0,0,0,0,0,0,-0.169,-0.1617,-0.176,-0.1799,-0.1804,-0.1857,-0.1859,-0.186,-0.1909,-0.1909,-0.1909,-0.1909,-0.2012,-0.2016,-0.202,-0.2041,0,0,-0.2032,-0.2034,0,0,0,0,0,0,0,0,-0.1686,-0.1695,-0.1792,-0.1797,-0.1802,-0.1872,-0.1845,-0.1921,-0.1909,-0.1868,-0.1909,-0.1909,-0.1967,-0.1975,-0.1992,-0.2046,-0.205,-0.2032,-0.2035,-0.2036,-0.2037,0,0,0,0,0,0,0,-0.1681,-0.1692,-0.1798,-0.1794,-0.18,-0.1811,-0.1822,-0.186,-0.1915,-0.1872,-0.1876,-0.1888,-0.197,-0.1988,-0.1994,-0.2052,-0.2032,-0.2036,-0.2038,-0.204,-0.2203,-0.2205,0,0,0,0,0,0,-0.1671,-0.1687,-0.1795,-0.1801,-0.1744,-0.1813,-0.1826,-0.1849,-0.1915,-0.1925,-0.1888,-0.189,-0.1981,-0.199,-0.1998,-0.2099,-0.2036,-0.204,-0.2042,-0.2202,-0.2204,-0.2206,0,0,0,0,0,0,-0.1667,-0.168,-0.1791,-0.1746,-0.1761,-0.1816,-0.1841,-0.1851,-0.19,-0.1927,-0.1937,-0.1931,-0.1981,-0.1993,-0.2064,-0.2101,-0.2042,-0.2046,-0.2199,-0.2202,-0.2205,-0.2255,0,0,0,0,0,0,-0.1663,-0.1678,-0.1709,-0.1746,-0.1763,-0.1848,-0.1842,-0.1852,-0.1906,-0.191,-0.1967,-0.1975,-0.1982,-0.2058,-0.2068,-0.2105,-0.2049,-0.2197,-0.2201,-0.2204,-0.2251,-0.2259,-0.2266,0,0,0,0,0,-0.1657,-0.1695,-0.171,-0.1724,-0.1799,-0.185,-0.1862,-0.1899,-0.1908,-0.1942,-0.1979,-0.1975,-0.2088,-0.2064,-0.2075,-0.2113,-0.2195,-0.22,-0.2204,-0.2247,-0.2257,-0.2266,0,0,0,0,0,0,-0.165,-0.1704,-0.1722,-0.1776,-0.1822,-0.186,-0.1899,-0.1919,-0.1976,-0.199,-0.2006,-0.2018,-0.2092,-0.21,-0.2072,-0.2172,-0.2139,-0.2146,-0.2168,-0.2178,-0.2185,-0.2171,-0.2052,0,0,0,0,0,-0.1661,-0.1704,-0.1752,-0.1798,-0.1826,-0.1868,-0.19,-0.1928,-0.1972,-0.1999,-0.2037,-0.2077,-0.2114,-0.2144,-0.218,-0.2241,-0.2215,-0.2272,-0.228,-0.2286,-0.2283,-0.2276,-0.2282,-0.222,-0.222,-0.222,0,0,-0.167,-0.1706,-0.1732,-0.18,-0.184,-0.189,-0.189,-0.1952,-0.1997,-0.2001,-0.2086,-0.2112,-0.2137,-0.2202,-0.2235,-0.2217,-0.2291,-0.2292,-0.2297,-0.229,-0.2281,-0.2287,-0.2292,-0.2223,-0.2223,-0.2222,0,0,-0.17,-0.1746,-0.1791,-0.1835,-0.1903,-0.193,-0.1955,-0.2018,-0.2054,-0.2131,-0.2139,-0.2186,-0.226,-0.2275,-0.229,-0.2365,-0.2332,-0.2385,-0.2415,-0.2409,-0.2413,-0.2416,-0.2384,-0.2384,-0.2388,-0.2388,-0.2388,0,-0.1709,-0.1771,-0.1813,-0.1867,-0.1905,-0.1951,-0.2003,-0.205,-0.2128,-0.2155,-0.2171,-0.2261,-0.2289,-0.2337,-0.2365,-0.2381,-0.2362,-0.2375,-0.2416,-0.2419,-0.2421,-0.2387,-0.2386,-0.2391,-0.2391,-0.239,-0.239,0,-0.1766,-0.1825,-0.1857,-0.1936,-0.1985,-0.2041,-0.21,-0.2158,-0.2204,-0.2237,-0.2311,-0.2347,-0.2389,-0.2412,-0.2417,-0.2455,-0.2429,-0.2424,-0.2385,-0.243,-0.2392,-0.239,-0.2395,-0.2394,-0.2393,-0.2392,0,0,-0.1745,-0.1872,-0.1885,-0.1929,-0.2026,-0.2064,-0.2146,-0.2215,-0.2257,-0.2333,-0.2378,-0.2448,-0.2456,-0.2473,-0.2482,-0.2486,-0.2493,-0.247,-0.2469,-0.2423,-0.246,-0.2296,-0.2278,-0.2494,-0.2494,-0.2494,-0.2422,0,-0.1774,-0.1876,-0.1934,-0.2025,-0.2075,-0.2141,-0.2205,-0.2273,-0.2329,-0.2387,-0.2421,-0.2473,-0.2481,-0.2504,-0.2512,-0.2502,-0.2492,-0.2511,-0.2435,-0.2432,-0.2269,-0.2272,-0.2496,-0.2421,-0.242,-0.242,-0.2419,0,-0.1797,-0.1862,-0.196,-0.2059,-0.2088,-0.215,-0.2239,-0.2304,-0.2384,-0.2426,-0.2475,-0.25,-0.2533,-0.2529,-0.2519,-0.2531,-0.25,-0.2482,-0.2479,-0.2304,-0.2264,-0.2369,-0.2416,-0.2416,-0.2416,-0.2417,-0.2417,0,-0.174,-0.1867,-0.1944,-0.1984,-0.211,-0.2161,-0.2226,-0.2316,-0.2361,-0.2446,-0.2474,-0.2519,-0.2535,-0.2524,-0.2497,-0.2512,-0.2459,-0.2468,-0.2284,-0.2272,-0.242,-0.2417,-0.2442,-0.2442,-0.2442,-0.2442,-0.2443,0,-0.1721,-0.1781,-0.1929,-0.1969,-0.2042,-0.2141,-0.2215,-0.2283,-0.237,-0.2399,-0.2484,-0.2487,-0.2537,-0.2516,-0.2492,-0.2364,-0.2448,-0.2273,-0.2238,-0.2443,-0.2444,-0.2417,-0.2416,-0.244,-0.244,-0.2441,-0.2441,0,-0.164,-0.1748,-0.1832,-0.1976,-0.202,-0.207,-0.2197,-0.2234,-0.2336,-0.2373,-0.2398,-0.2462,-0.2419,-0.2429,-0.2393,-0.2323,-0.2244,-0.2177,-0.2374,-0.2356,-0.2064,-0.2066,-0.1959,-0.1952,-0.1947,-0.1942,-0.1938,0,-0.1605,-0.1649,-0.1811,-0.185,-0.192,-0.2013,-0.2064,-0.2196,-0.2226,-0.2323,-0.2311,-0.2322,-0.2337,-0.2136,-0.2182,-0.2094,-0.2075,-0.2028,-0.2065,-0.2035,-0.2013,-0.2024,-0.2034,-0.193,-0.1928,-0.1927,-0.1925,0,-0.1517,-0.1596,-0.1664,-0.1749,-0.182,-0.1881,-0.1964,-0.1969,-0.2094,-0.2213,-0.2146,-0.2108,-0.2046,-0.2003,-0.194,-0.1892,-0.2062,-0.1971,-0.1983,-0.2017,-0.1998,-0.1985,-0.2001,-0.1906,-0.1909,-0.1911,-0.1912,0,-0.1439,-0.1462,-0.1559,-0.1613,-0.1695,-0.1705,-0.1777,-0.1796,-0.1841,-0.1962,-0.1928,-0.1942,-0.2008,-0.1893,-0.1842,-0.1771,-0.1752,-0.1713,-0.1738,-0.176,-0.173,-0.1679,-0.144,0,0,0,0,0,-0.1343,-0.1356,-0.1405,-0.1452,-0.1525,-0.1564,-0.1681,-0.1756,-0.1884,-0.1779,-0.1848,-0.178,-0.1694,-0.1711,-0.159,-0.1753,-0.1764,-0.161,-0.1734,-0.1801,-0.1823,-0.1807,0,0,0,0,0,0,-0.128,-0.1327,-0.1353,-0.1299,-0.1291,-0.1345,-0.1411,-0.1504,-0.1461,-0.1596,-0.1548,-0.1659,-0.1592,-0.1705,-0.154,-0.1546,-0.1587,-0.164,-0.1635,-0.1788,-0.1808,-0.1826,-0.1818,0,0,0,0,0]},{"header":{"parameterUnit":"m.s-1","parameterCategory":2,"la1":30.2991,"la2":30.254,"lo1":-89.0895,"lo2":-89.0444,"dy":0.0017,"dx":0.0017,"nx":28,"ny":28,"refTime":"2025-11-09T03:00:00:Z","depth":"4","parameterNumber":3,"parameterNumberName":"V-component_of_CURRENTS"},"data":[0,0,0,0,0,0,0,0,0,0,0,0,0,0,0,0,0,0,0,0,0,0,0,0,0,0,0,0,0,0,0,0,0,0,0,0,0,0,0,0,0,0,0,0,0,0,0,0,0,0,0,0,0,0,0,0,0,0,-0.0344,-0.0343,0,-0.0267,-0.0266,-0.0265,-0.0234,-0.0234,-0.0234,-0.0235,-0.0116,-0.0113,-0.0109,0,0,0,0,0,0,0,0,0,0,0,0,0,-0.0405,-0.0404,-0.0344,-0.0343,-0.0342,-0.0267,-0.0266,-0.0265,-0.0234,-0.0234,-0.0234,-0.0235,-0.0117,-0.0113,-0.0109,0,0,0,0,0,0,0,0,0,0,0,0,0,-0.0357,-0.0404,-0.0344,-0.0319,-0.0316,-0.0267,-0.0266,-0.0264,-0.0234,-0.0234,-0.0235,-0.0235,-0.0119,-0.0114,-0.0108,-0.0067,0,0,-0.0093,-0.009,0,0,0,0,0,0,0,0,-0.036,-0.0355,-0.0323,-0.0321,-0.0317,-0.0262,-0.0244,-0.0197,-0.0234,-0.0263,-0.0235,-0.0235,-0.0161,-0.0153,-0.0136,-0.0062,-0.0057,-0.0092,-0.0089,-0.0087,-0.0085,0,0,0,0,0,0,0,-0.0363,-0.0358,-0.0312,-0.0322,-0.0319,-0.0291,-0.0285,-0.0235,-0.0209,-0.0261,-0.0259,-0.0252,-0.0159,-0.0141,-0.0133,-0.0055,-0.0092,-0.0088,-0.0085,-0.0083,0.0075,0.0076,0,0,0,0,0,0,-0.0378,-0.0361,-0.0315,-0.031,-0.0342,-0.029,-0.0283,-0.0278,-0.021,-0.0201,-0.0252,-0.0251,-0.015,-0.0139,-0.0128,-0.008,-0.0087,-0.0082,-0.0079,0.0074,0.0075,0.0077,0,0,0,0,0,0,-0.038,-0.0375,-0.0318,-0.0335,-0.0326,-0.0289,-0.0283,-0.0276,-0.0262,-0.0204,-0.0194,-0.0246,-0.015,-0.0136,-0.0083,-0.0075,-0.008,-0.0075,0.0073,0.0075,0.0076,0.0021,0,0,0,0,0,0,-0.0382,-0.0376,-0.0379,-0.0336,-0.0325,-0.0294,-0.0282,-0.0274,-0.0258,-0.0256,-0.0195,-0.0184,-0.0149,-0.0091,-0.0078,-0.0068,-0.0071,0.0071,0.0074,0.0076,0.0021,0.002,0.0019,0,0,0,0,0,-0.0384,-0.0385,-0.0379,-0.0374,-0.033,-0.0294,-0.0286,-0.026,-0.0257,-0.0249,-0.0207,-0.0187,-0.0069,-0.0086,-0.0071,-0.0059,0.007,0.0073,0.0075,0.0021,0.002,0.0019,0,0,0,0,0,0,-0.0412,-0.038,-0.0374,-0.0365,-0.0336,-0.029,-0.0281,-0.0264,-0.0224,-0.0223,-0.0172,-0.0158,-0.0109,-0.007,-0.0091,-0.0005,0.0005,0.001,-0.0041,-0.0042,-0.0043,-0.0067,-0.0067,0,0,0,0,0,-0.042,-0.0415,-0.0378,-0.0372,-0.0359,-0.0322,-0.0306,-0.0287,-0.0247,-0.0231,-0.0187,-0.0135,-0.0085,-0.0055,-0.0006,0.0043,0.0077,0.0063,0.0062,0.0061,0.0054,0.0116,0.0119,0.0085,0.0085,0.0085,0,0,-0.0432,-0.0413,-0.0412,-0.0379,-0.0354,-0.0334,-0.0313,-0.029,-0.0273,-0.0222,-0.0184,-0.0138,-0.0073,-0.0022,0.0004,0.001,0.009,0.0064,0.0062,0.0056,0.0119,0.0122,0.0125,0.0086,0.0086,0.0086,0,0,-0.0445,-0.0434,-0.043,-0.0408,-0.0375,-0.0348,-0.0345,-0.0299,-0.028,-0.0236,-0.0196,-0.0146,-0.0069,-0.0021,0.0013,0.0042,0.008,0.006,0.004,0.01,0.0103,0.0105,0.0149,0.0156,0.0063,0.0063,0.0063,0,-0.046,-0.0452,-0.0423,-0.041,-0.0399,-0.0358,-0.0351,-0.0317,-0.0261,-0.0244,-0.0231,-0.0119,-0.0068,-0.0003,0.0004,0.0038,0.0071,0.0032,0.0096,0.01,0.0103,0.0148,0.0156,0.0061,0.0061,0.0061,0.0061,0,-0.0464,-0.0461,-0.0456,-0.043,-0.0412,-0.0399,-0.0355,-0.0331,-0.0305,-0.027,-0.021,-0.0136,-0.0073,-0.0044,-0.0012,0.0044,0.0059,0.0081,0.0089,0.0103,0.015,0.0159,0.0057,0.0058,0.0059,0.0059,0,0,-0.0492,-0.0466,-0.0467,-0.0469,-0.0427,-0.0415,-0.0384,-0.0347,-0.0334,-0.027,-0.0242,-0.0151,-0.0119,-0.0077,-0.0024,0.003,0.0085,0.0059,0.0064,0.0085,0.0207,0.0179,0.0187,0.0115,0.0117,0.0118,0.0226,0,-0.0507,-0.0507,-0.0483,-0.0485,-0.0483,-0.0443,-0.0424,-0.0385,-0.0343,-0.0301,-0.0221,-0.0172,-0.0127,-0.0101,-0.0038,0.0053,0.0109,0.0053,0.0206,0.021,0.0169,0.0197,0.0123,0.0234,0.0236,0.0238,0.0239,0,-0.0519,-0.0521,-0.0533,-0.0528,-0.0523,-0.0519,-0.0494,-0.0468,-0.0396,-0.0362,-0.0295,-0.0231,-0.0141,-0.0108,0.0053,0.0013,0.0101,0.0173,0.018,0.0178,0.0201,0.0222,0.0257,0.0256,0.0254,0.0253,0.0252,0,-0.0564,-0.0557,-0.0578,-0.0574,-0.0554,-0.0559,-0.0547,-0.0495,-0.0476,-0.0402,-0.0377,-0.0262,-0.0202,-0.0077,0.007,0.0064,0.0245,0.026,0.0321,0.032,0.0334,0.033,0.0374,0.0374,0.0374,0.0373,0.0373,0,-0.0587,-0.0605,-0.0609,-0.062,-0.0652,-0.0617,-0.063,-0.0597,-0.0545,-0.0517,-0.0418,-0.0362,-0.0192,-0.0066,0.0063,0.0219,0.0246,0.0318,0.0349,0.031,0.0302,0.0341,0.0336,0.0377,0.0377,0.0376,0.0375,0,-0.0626,-0.0625,-0.0656,-0.0665,-0.0675,-0.07,-0.0697,-0.0695,-0.0639,-0.0596,-0.0575,-0.0429,-0.0266,-0.0095,0.0118,0.0203,0.0357,0.0408,0.0344,0.037,0.0392,0.0383,0.0479,0.0479,0.0479,0.0479,0.0479,0,-0.064,-0.0661,-0.0707,-0.074,-0.0751,-0.078,-0.0798,-0.0755,-0.0738,-0.0627,-0.0603,-0.0446,-0.0333,-0.0052,0.0119,0.0353,0.0385,0.0449,0.0425,0.0384,0.0405,0.0396,0.0387,0.0479,0.0479,0.0479,0.0479,0,-0.0672,-0.0698,-0.0727,-0.0804,-0.0844,-0.0875,-0.0886,-0.0877,-0.0803,-0.0756,-0.0608,-0.0449,-0.0266,-0.0053,0.0125,0.0296,0.0395,0.045,0.0451,0.0429,0.0385,0.0404,0.0395,0.0479,0.0479,0.0479,0.0479,0,-0.0701,-0.0738,-0.0791,-0.0852,-0.0914,-0.0944,-0.0942,-0.0894,-0.0859,-0.0718,-0.0667,-0.045,-0.0317,-0.0081,0.009,0.0243,0.0277,0.031,0.0319,0.0321,0.0235,0.0154,0.0206,0,0,0,0,0,-0.072,-0.0766,-0.0833,-0.0897,-0.096,-0.0988,-0.0987,-0.0964,-0.0888,-0.0791,-0.0721,-0.0538,-0.0264,-0.0138,0.0011,0.0065,0.0278,0.024,0.0314,0.0479,0.0479,0.0402,0,0,0,0,0,0,-0.0735,-0.0803,-0.0835,-0.0921,-0.097,-0.1024,-0.1023,-0.0971,-0.0898,-0.08,-0.0647,-0.0533,-0.0267,-0.0353,0.0004,0.0052,0.0112,0.0381,0.0383,0.0479,0.0479,0.0479,0.0399,0,0,0,0,0]}]]